North Conway, NH

9:05 AM EST on November 21, 2019 (GMT -0500)
North Conway

Weather History for KCWN - September, 2019

Change the Weather History Date:

Sunday, September 22, 2019

  Actual Average (WUND) Record (WUND)
Temperature  
Mean Temperature 54 °F -  
Max Temperature 64 °F - - (-1)
Min Temperature 45 °F - - (-1)
Degree Days  
Heating Degree Days 10    
Growing Degree Days 4 (Base 50)    
Moisture  
Dew Point 33 °F    
Average Humidity 44    
Maximum Humidity 65    
Minimum Humidity 27    
Precipitation  
Precipitation 0.00 in - - ()
Sea Level Pressure  
Sea Level Pressure 29.69 in    
Wind  
Wind Speed 12 mph (SSE)    
Max Wind Speed 22 mph    
Max Gust Speed 28 mph    
Visibility 10 miles    
Events      
Averages and records for this station are not official NWS values.
T = Trace of Precipitation, MM = Missing Value Source: NWS Daily Summary

Daily Weather History Graph

Daily Weather History Graph

Search for Another Location

Airport or City:

Astronomy

Sep. 22, 2019 Rise Set
Actual Time 6:31 AM EDT 6:42 PM EDT
Civil Twilight 6:02 AM EDT 7:11 PM EDT
Nautical Twilight 5:28 AM EDT 7:45 PM EDT
Astronomical Twilight 4:54 AM EDT 8:19 PM EDT
Moon 11:59 PM EDT (9/22) 2:48 PM EDT (9/22)
Length of Visible Light 13h 08m
Length of Day
12h 10m
Last Quarter, 44% of the Moon is Illuminated
Sep 22
Last Quarter
Sep 28
New
Oct 5
First Quarter
Oct 13
Full
Oct 21
Last Quarter

Hourly Weather History & Observations

Time (EDT) Temp. Windchill Dew Point Humidity Pressure Visibility Wind Dir Wind Speed Gust Speed Precip Events Conditions
12:58 AM 53.1 °F - 32.5 °F 46% 29.60 in 10.0 mi NNW 17.3 mph 27.6 mph N/A   Mostly Cloudy
1:58 AM 51.3 °F - 32.9 °F 50% 29.62 in 10.0 mi NW 18.4 mph 27.6 mph N/A   Partly Cloudy
2:58 AM 50.4 °F - 33.4 °F 52% 29.62 in 10.0 mi NW 15.0 mph 26.5 mph N/A   Clear
3:58 AM 50.2 °F - 32.7 °F 51% 29.65 in 10.0 mi NNW 8.1 mph - N/A   Clear
4:58 AM 48.9 °F - 32.5 °F 53% 29.65 in 10.0 mi NNW 5.8 mph - N/A   Clear
5:58 AM 46.4 °F - 33.8 °F 62% 29.66 in 10.0 mi Calm Calm - N/A   Clear
6:58 AM 45.9 °F 41.7 °F 32.4 °F 59% 29.68 in 10.0 mi South 8.1 mph - N/A   Clear
7:58 AM 48.4 °F - 32.4 °F 54% 29.68 in 10.0 mi South 4.6 mph - N/A   Clear
8:58 AM 47.8 °F - 32.9 °F 56% 29.68 in 10.0 mi South 13.8 mph - N/A   Clear
9:58 AM 45.1 °F 41.4 °F 34.0 °F 65% 29.73 in 10.0 mi North 6.9 mph - N/A   Clear
10:58 AM 48.7 °F - 34.7 °F 58% 29.72 in 10.0 mi North 3.5 mph - N/A   Clear
11:58 AM 54.3 °F - 35.6 °F 49% 29.72 in 10.0 mi ESE 4.6 mph - N/A   Clear
12:58 PM 58.3 °F - 36.7 °F 45% 29.72 in 10.0 mi ESE 9.2 mph 17.3 mph N/A   Clear
1:58 PM 58.6 °F - 35.8 °F 42% 29.71 in 10.0 mi SE 12.7 mph 19.6 mph N/A   Clear
2:58 PM 61.3 °F - 33.6 °F 35% 29.70 in 10.0 mi SSE 11.5 mph 17.3 mph N/A   Clear
3:58 PM 63.3 °F - 33.1 °F 32% 29.66 in 10.0 mi SSE 16.1 mph 23.0 mph N/A   Clear
4:58 PM 64.8 °F - 32.5 °F 30% 29.65 in 10.0 mi SSE 13.8 mph 21.9 mph N/A   Clear
5:58 PM 64.4 °F - 29.7 °F 27% 29.66 in 10.0 mi SE 21.9 mph 26.5 mph N/A   Clear
6:58 PM 62.6 °F - 29.5 °F 29% 29.68 in 10.0 mi SE 16.1 mph 19.6 mph N/A   Clear
7:58 PM 61.5 °F - 28.9 °F 29% 29.69 in 10.0 mi SSE 10.4 mph - N/A   Clear
8:58 PM 60.3 °F - 30.6 °F 33% 29.73 in 10.0 mi South 10.4 mph - N/A   Clear
9:58 PM 59.2 °F - 30.9 °F 34% 29.77 in 10.0 mi South 11.5 mph - N/A   Clear
10:58 PM 58.1 °F - 29.3 °F 33% 29.79 in 10.0 mi South 10.4 mph - N/A   Clear
11:58 PM 58.1 °F - 29.7 °F 34% 29.77 in 10.0 mi South 9.2 mph - N/A   Clear